Year,Month,Day,Hour,Minute,Value (Times are PST for temperature in C)
2007,07,29,00,00,19.20
2007,07,29,00,01,19.20
2007,07,29,00,02,19.20
2007,07,29,00,03,19.20
2007,07,29,00,04,19.20
2007,07,29,00,05,19.20
2007,07,29,00,06,19.20
2007,07,29,00,07,19.20
2007,07,29,00,08,19.20
2007,07,29,00,09,19.20
2007,07,29,00,10,19.20
2007,07,29,00,11,19.20
2007,07,29,00,12,19.20
2007,07,29,00,13,19.20
2007,07,29,00,14,19.20
2007,07,29,00,15,19.20
2007,07,29,00,16,19.10
2007,07,29,00,17,19.10
2007,07,29,00,18,19.10
2007,07,29,00,19,19.20
2007,07,29,00,20,19.20
2007,07,29,00,21,19.20
2007,07,29,00,22,19.20
2007,07,29,00,23,19.20
2007,07,29,00,24,19.20
2007,07,29,00,25,19.30
2007,07,29,00,26,19.30
2007,07,29,00,27,19.30
2007,07,29,00,28,19.20
2007,07,29,00,29,19.30
2007,07,29,00,30,19.30
2007,07,29,00,31,19.30
2007,07,29,00,32,19.30
2007,07,29,00,33,19.30
2007,07,29,00,34,19.30
2007,07,29,00,35,19.30
2007,07,29,00,36,19.30
2007,07,29,00,37,19.30
2007,07,29,00,38,19.30
2007,07,29,00,39,19.30
2007,07,29,00,40,19.30
2007,07,29,00,41,19.30
2007,07,29,00,42,19.30
2007,07,29,00,43,19.30
2007,07,29,00,44,19.30
2007,07,29,00,45,19.30
2007,07,29,00,46,19.30
2007,07,29,00,47,19.30
2007,07,29,00,48,19.30
2007,07,29,00,49,19.30
2007,07,29,00,50,19.30
2007,07,29,00,51,19.30
2007,07,29,00,52,19.30
2007,07,29,00,53,19.30
2007,07,29,00,54,19.30
2007,07,29,00,55,19.30
2007,07,29,00,56,19.30
2007,07,29,00,57,19.30
2007,07,29,00,58,19.30
2007,07,29,00,59,19.30
2007,07,29,01,00,19.30
2007,07,29,01,01,19.30
2007,07,29,01,02,19.30
2007,07,29,01,03,19.30
2007,07,29,01,04,19.30
2007,07,29,01,05,19.30
2007,07,29,01,06,19.30
2007,07,29,01,07,19.30
2007,07,29,01,08,19.30
2007,07,29,01,09,19.30
2007,07,29,01,10,19.30
2007,07,29,01,11,19.30
2007,07,29,01,12,19.30
2007,07,29,01,13,19.30
2007,07,29,01,14,19.30
2007,07,29,01,15,19.30
2007,07,29,01,16,19.30
2007,07,29,01,17,19.30
2007,07,29,01,18,19.30
2007,07,29,01,19,19.30
2007,07,29,01,20,19.30
2007,07,29,01,21,19.30
2007,07,29,01,22,19.30
2007,07,29,01,23,19.30
2007,07,29,01,24,19.30
2007,07,29,01,25,19.30
2007,07,29,01,26,19.30
2007,07,29,01,27,19.30
2007,07,29,01,28,19.30
2007,07,29,01,29,19.30
2007,07,29,01,30,19.30
2007,07,29,01,31,19.30
2007,07,29,01,32,19.30
2007,07,29,01,33,19.30
2007,07,29,01,34,19.30
2007,07,29,01,35,19.30
2007,07,29,01,36,19.30
2007,07,29,01,37,19.30
2007,07,29,01,38,19.30
2007,07,29,01,39,19.30
2007,07,29,01,40,19.30
2007,07,29,01,41,19.30
2007,07,29,01,42,19.30
2007,07,29,01,43,19.30
2007,07,29,01,44,19.30
2007,07,29,01,45,19.40
2007,07,29,01,46,19.40
2007,07,29,01,47,19.40
2007,07,29,01,48,19.40
2007,07,29,01,49,19.40
2007,07,29,01,50,19.40
2007,07,29,01,51,19.30
2007,07,29,01,52,19.40
2007,07,29,01,53,19.30
2007,07,29,01,54,19.30
2007,07,29,01,55,19.30
2007,07,29,01,56,19.30
2007,07,29,01,57,19.30
2007,07,29,01,58,19.30
2007,07,29,01,59,19.30
2007,07,29,02,00,19.30
2007,07,29,02,01,19.30
2007,07,29,02,02,19.30
2007,07,29,02,03,19.30
2007,07,29,02,04,19.30
2007,07,29,02,05,19.30
2007,07,29,02,06,19.30
2007,07,29,02,07,19.30
2007,07,29,02,08,19.30
2007,07,29,02,09,19.30
2007,07,29,02,10,19.40
2007,07,29,02,11,19.40
2007,07,29,02,12,19.40
2007,07,29,02,13,19.40
2007,07,29,02,14,19.30
2007,07,29,02,15,19.30
2007,07,29,02,16,19.30
2007,07,29,02,17,19.30
2007,07,29,02,18,19.30
2007,07,29,02,19,19.30
2007,07,29,02,20,19.30
2007,07,29,02,21,19.30
2007,07,29,02,22,19.20
2007,07,29,02,23,19.20
2007,07,29,02,24,19.20
2007,07,29,02,25,19.20
2007,07,29,02,26,19.20
2007,07,29,02,27,19.20
2007,07,29,02,28,19.20
2007,07,29,02,29,19.20
2007,07,29,02,30,19.20
2007,07,29,02,31,19.20
2007,07,29,02,32,19.10
2007,07,29,02,33,19.10
2007,07,29,02,34,19.10
2007,07,29,02,35,19.10
2007,07,29,02,36,19.10
2007,07,29,02,37,19.10
2007,07,29,02,38,19.10
2007,07,29,02,39,19.10
2007,07,29,02,40,19.10
2007,07,29,02,41,19.10
2007,07,29,02,42,19.10
2007,07,29,02,43,19.10
2007,07,29,02,44,19.10
2007,07,29,02,45,19.10
2007,07,29,02,46,19.10
2007,07,29,02,47,19.10
2007,07,29,02,48,19.10
2007,07,29,02,49,19.10
2007,07,29,02,50,19.00
2007,07,29,02,51,19.00
2007,07,29,02,52,19.00
2007,07,29,02,53,19.00
2007,07,29,02,54,19.00
2007,07,29,02,55,19.00
2007,07,29,02,56,19.00
2007,07,29,02,57,19.00
2007,07,29,02,58,18.90
2007,07,29,02,59,18.90
2007,07,29,03,00,18.90
2007,07,29,03,01,18.90
2007,07,29,03,02,18.80
2007,07,29,03,03,18.80
2007,07,29,03,04,18.80
2007,07,29,03,05,18.70
2007,07,29,03,06,18.70
2007,07,29,03,07,18.70
2007,07,29,03,08,18.70
2007,07,29,03,09,18.70
2007,07,29,03,10,18.70
2007,07,29,03,11,18.60
2007,07,29,03,12,18.60
2007,07,29,03,13,18.60
2007,07,29,03,14,18.60
2007,07,29,03,15,18.60
2007,07,29,03,16,18.60
2007,07,29,03,17,18.60
2007,07,29,03,18,18.60
2007,07,29,03,19,18.50
2007,07,29,03,20,18.50
2007,07,29,03,21,18.50
2007,07,29,03,22,18.50
2007,07,29,03,23,18.40
2007,07,29,03,24,18.40
2007,07,29,03,25,18.40
2007,07,29,03,26,18.40
2007,07,29,03,27,18.30
2007,07,29,03,28,18.30
2007,07,29,03,29,18.30
2007,07,29,03,30,18.30
2007,07,29,03,31,18.30
2007,07,29,03,32,18.30
2007,07,29,03,33,18.20
2007,07,29,03,34,18.20
2007,07,29,03,35,18.20
2007,07,29,03,36,18.10
2007,07,29,03,37,18.10
2007,07,29,03,38,18.00
2007,07,29,03,39,17.90
2007,07,29,03,40,17.90
2007,07,29,03,41,17.90
2007,07,29,03,42,17.80
2007,07,29,03,43,17.80
2007,07,29,03,44,17.80
2007,07,29,03,45,17.80
2007,07,29,03,46,17.70
2007,07,29,03,47,17.60
2007,07,29,03,48,17.60
2007,07,29,03,49,17.60
2007,07,29,03,50,17.50
2007,07,29,03,51,17.50
2007,07,29,03,52,17.50
2007,07,29,03,53,17.40
2007,07,29,03,54,17.40
2007,07,29,03,55,17.40
2007,07,29,03,56,17.40
2007,07,29,03,57,17.30
2007,07,29,03,58,17.30
2007,07,29,03,59,17.30
2007,07,29,04,00,17.30
2007,07,29,04,01,17.20
2007,07,29,04,02,17.20
2007,07,29,04,03,17.20
2007,07,29,04,04,17.20
2007,07,29,04,05,17.20
2007,07,29,04,06,17.20
2007,07,29,04,07,17.20
2007,07,29,04,08,17.10
2007,07,29,04,09,17.10
2007,07,29,04,10,17.10
2007,07,29,04,11,17.10
2007,07,29,04,12,17.10
2007,07,29,04,13,17.00
2007,07,29,04,14,17.00
2007,07,29,04,15,17.00
2007,07,29,04,16,16.90
2007,07,29,04,17,16.90
2007,07,29,04,18,16.90
2007,07,29,04,19,16.90
2007,07,29,04,20,16.90
2007,07,29,04,21,16.90
2007,07,29,04,22,16.90
2007,07,29,04,23,16.90
2007,07,29,04,24,16.90
2007,07,29,04,25,16.90
2007,07,29,04,26,16.90
2007,07,29,04,27,16.90
2007,07,29,04,28,16.90
2007,07,29,04,29,16.90
2007,07,29,04,30,16.90
2007,07,29,04,31,16.90
2007,07,29,04,32,16.90
2007,07,29,04,33,16.90
2007,07,29,04,34,17.00
2007,07,29,04,35,17.00
2007,07,29,04,36,17.00
2007,07,29,04,37,17.00
2007,07,29,04,38,17.00
2007,07,29,04,39,17.00
2007,07,29,04,40,17.00
2007,07,29,04,41,17.10
2007,07,29,04,42,17.10
2007,07,29,04,43,17.10
2007,07,29,04,44,17.10
2007,07,29,04,45,17.10
2007,07,29,04,46,17.10
2007,07,29,04,47,17.10
2007,07,29,04,48,17.10
2007,07,29,04,49,17.10
2007,07,29,04,50,17.00
2007,07,29,04,51,17.00
2007,07,29,04,52,17.00
2007,07,29,04,53,17.00
2007,07,29,04,54,16.90
2007,07,29,04,55,16.90
2007,07,29,04,56,16.90
2007,07,29,04,57,16.90
2007,07,29,04,58,16.90
2007,07,29,04,59,16.90
2007,07,29,05,00,16.80
2007,07,29,05,01,16.80
2007,07,29,05,02,16.80
2007,07,29,05,03,16.80
2007,07,29,05,04,16.70
2007,07,29,05,05,16.70
2007,07,29,05,06,16.70
2007,07,29,05,07,16.60
2007,07,29,05,08,16.60
2007,07,29,05,09,16.60
2007,07,29,05,10,16.60
2007,07,29,05,11,16.60
2007,07,29,05,12,16.60
2007,07,29,05,13,16.60
2007,07,29,05,14,16.60
2007,07,29,05,15,16.50
2007,07,29,05,16,16.50
2007,07,29,05,17,16.50
2007,07,29,05,18,16.40
2007,07,29,05,19,16.40
2007,07,29,05,20,16.40
2007,07,29,05,21,16.40
2007,07,29,05,22,16.40
2007,07,29,05,23,16.30
2007,07,29,05,24,16.30
2007,07,29,05,25,16.30
2007,07,29,05,26,16.30
2007,07,29,05,27,16.30
2007,07,29,05,28,16.20
2007,07,29,05,29,16.20
2007,07,29,05,30,16.20
2007,07,29,05,31,16.20
2007,07,29,05,32,16.20
2007,07,29,05,33,16.20
2007,07,29,05,34,16.20
2007,07,29,05,35,16.20
2007,07,29,05,36,16.20
2007,07,29,05,37,16.20
2007,07,29,05,38,16.20
2007,07,29,05,39,16.20
2007,07,29,05,40,16.20
2007,07,29,05,41,16.20
2007,07,29,05,42,16.20
2007,07,29,05,43,16.30
2007,07,29,05,44,16.30
2007,07,29,05,45,16.30
2007,07,29,05,46,16.30
2007,07,29,05,47,16.30
2007,07,29,05,48,16.30
2007,07,29,05,49,16.30
2007,07,29,05,50,16.30
2007,07,29,05,51,16.30
2007,07,29,05,52,16.30
2007,07,29,05,53,16.30
2007,07,29,05,54,16.30
2007,07,29,05,55,16.30
2007,07,29,05,56,16.30
2007,07,29,05,57,16.30
2007,07,29,05,58,16.40
2007,07,29,05,59,16.40
2007,07,29,06,00,16.40
2007,07,29,06,01,16.40
2007,07,29,06,02,16.40
2007,07,29,06,03,16.40
2007,07,29,06,04,16.40
2007,07,29,06,05,16.40
2007,07,29,06,06,16.40
2007,07,29,06,07,16.40
2007,07,29,06,08,16.40
2007,07,29,06,09,16.50
2007,07,29,06,10,16.50
2007,07,29,06,11,16.50
2007,07,29,06,12,16.50
2007,07,29,06,13,16.60
2007,07,29,06,14,16.60
2007,07,29,06,15,16.60
2007,07,29,06,16,16.60
2007,07,29,06,17,16.60
2007,07,29,06,18,16.70
2007,07,29,06,19,16.70
2007,07,29,06,20,16.70
2007,07,29,06,21,16.70
2007,07,29,06,22,16.60
2007,07,29,06,23,16.60
2007,07,29,06,24,16.60
2007,07,29,06,25,16.60
2007,07,29,06,26,16.60
2007,07,29,06,27,16.50
2007,07,29,06,28,16.50
2007,07,29,06,29,16.50
2007,07,29,06,30,16.40
2007,07,29,06,31,16.40
2007,07,29,06,32,16.40
2007,07,29,06,33,16.40
2007,07,29,06,34,16.40
2007,07,29,06,35,16.40
2007,07,29,06,36,16.40
2007,07,29,06,37,16.30
2007,07,29,06,38,16.30
2007,07,29,06,39,16.30
2007,07,29,06,40,16.30
2007,07,29,06,41,16.30
2007,07,29,06,42,16.30
2007,07,29,06,43,16.30
2007,07,29,06,44,16.30
2007,07,29,06,45,16.20
2007,07,29,06,46,16.20
2007,07,29,06,47,16.20
2007,07,29,06,48,16.20
2007,07,29,06,49,16.20
2007,07,29,06,50,16.20
2007,07,29,06,51,16.20
2007,07,29,06,52,16.20
2007,07,29,06,53,16.20
2007,07,29,06,54,16.20
2007,07,29,06,55,16.20
2007,07,29,06,56,16.20
2007,07,29,06,57,16.20
2007,07,29,06,58,16.20
2007,07,29,06,59,16.10
2007,07,29,07,00,16.10
2007,07,29,07,01,16.10
2007,07,29,07,02,16.10
2007,07,29,07,03,16.10
2007,07,29,07,04,16.10
2007,07,29,07,05,16.10
2007,07,29,07,06,16.10
2007,07,29,07,07,16.00
2007,07,29,07,08,16.00
2007,07,29,07,09,16.00
2007,07,29,07,10,16.00
2007,07,29,07,11,16.00
2007,07,29,07,12,16.00
2007,07,29,07,13,15.90
2007,07,29,07,14,15.90
2007,07,29,07,15,15.90
2007,07,29,07,16,15.90
2007,07,29,07,17,15.90
2007,07,29,07,18,15.90
2007,07,29,07,19,15.90
2007,07,29,07,20,15.90
2007,07,29,07,21,15.90
2007,07,29,07,22,15.90
2007,07,29,07,23,15.80
2007,07,29,07,24,15.80
2007,07,29,07,25,15.80
2007,07,29,07,26,15.80
2007,07,29,07,27,15.80
2007,07,29,07,28,15.70
2007,07,29,07,29,15.70
2007,07,29,07,30,15.70
2007,07,29,07,31,15.70
2007,07,29,07,32,15.70
2007,07,29,07,33,15.70
2007,07,29,07,34,15.70
2007,07,29,07,35,15.70
2007,07,29,07,36,15.70
2007,07,29,07,37,15.70
2007,07,29,07,38,15.70
2007,07,29,07,39,15.70
2007,07,29,07,40,15.80
2007,07,29,07,41,15.80
2007,07,29,07,42,15.80
2007,07,29,07,43,15.80
2007,07,29,07,44,15.80
2007,07,29,07,45,15.80
2007,07,29,07,46,15.80
2007,07,29,07,47,15.80
2007,07,29,07,48,15.80
2007,07,29,07,49,15.80
2007,07,29,07,50,15.80
2007,07,29,07,51,15.80
2007,07,29,07,52,15.80
2007,07,29,07,53,15.80
2007,07,29,07,54,15.80
2007,07,29,07,55,15.80
2007,07,29,07,56,15.80
2007,07,29,07,57,15.80
2007,07,29,07,58,15.80
2007,07,29,07,59,15.80
2007,07,29,08,00,15.80
2007,07,29,08,01,15.80
2007,07,29,08,02,15.80
2007,07,29,08,03,15.80
2007,07,29,08,04,15.80
2007,07,29,08,05,15.90
2007,07,29,08,06,15.90
2007,07,29,08,07,15.90
2007,07,29,08,08,15.90
2007,07,29,08,09,15.90
2007,07,29,08,10,15.90
2007,07,29,08,11,15.90
2007,07,29,08,12,15.90
2007,07,29,08,13,15.90
2007,07,29,08,14,15.90
2007,07,29,08,15,15.90
2007,07,29,08,16,15.90
2007,07,29,08,17,16.00
2007,07,29,08,18,16.00
2007,07,29,08,19,16.00
2007,07,29,08,20,16.00
2007,07,29,08,21,16.10
2007,07,29,08,22,16.10
2007,07,29,08,23,16.10
2007,07,29,08,24,16.20
2007,07,29,08,25,16.20
2007,07,29,08,26,16.20
2007,07,29,08,27,16.20
2007,07,29,08,28,16.30
2007,07,29,08,29,16.30
2007,07,29,08,30,16.30
2007,07,29,08,31,16.40
2007,07,29,08,32,16.40
2007,07,29,08,33,16.40
2007,07,29,08,34,16.40
2007,07,29,08,35,16.40
2007,07,29,08,36,16.50
2007,07,29,08,37,16.50
2007,07,29,08,38,16.50
2007,07,29,08,39,16.50
2007,07,29,08,40,16.50
2007,07,29,08,41,16.50
2007,07,29,08,42,16.60
2007,07,29,08,43,16.60
2007,07,29,08,44,16.60
2007,07,29,08,45,16.70
2007,07,29,08,46,16.80
2007,07,29,08,47,16.80
2007,07,29,08,48,16.90
2007,07,29,08,49,17.00
2007,07,29,08,50,17.00
2007,07,29,08,51,17.10
2007,07,29,08,52,17.10
2007,07,29,08,53,17.20
2007,07,29,08,54,17.20
2007,07,29,08,55,17.20
2007,07,29,08,56,17.20
2007,07,29,08,57,17.20
2007,07,29,08,58,17.20
2007,07,29,08,59,17.20
2007,07,29,09,00,17.20
2007,07,29,09,01,17.20
2007,07,29,09,02,17.30
2007,07,29,09,03,17.30
2007,07,29,09,04,17.40
2007,07,29,09,05,17.30
2007,07,29,09,06,17.40
2007,07,29,09,07,17.40
2007,07,29,09,08,17.40
2007,07,29,09,09,17.40
2007,07,29,09,10,17.40
2007,07,29,09,11,17.40
2007,07,29,09,12,17.40
2007,07,29,09,13,17.40
2007,07,29,09,14,17.50
2007,07,29,09,15,17.50
2007,07,29,09,16,17.60
2007,07,29,09,17,17.60
2007,07,29,09,18,17.60
2007,07,29,09,19,17.60
2007,07,29,09,20,17.60
2007,07,29,09,21,17.70
2007,07,29,09,22,17.70
2007,07,29,09,23,17.70
2007,07,29,09,24,17.70
2007,07,29,09,25,17.70
2007,07,29,09,26,17.70
2007,07,29,09,27,17.70
2007,07,29,09,28,17.70
2007,07,29,09,29,17.70
2007,07,29,09,30,17.60
2007,07,29,09,31,17.60
2007,07,29,09,32,17.60
2007,07,29,09,33,17.60
2007,07,29,09,34,17.60
2007,07,29,09,35,17.60
2007,07,29,09,36,17.60
2007,07,29,09,37,17.60
2007,07,29,09,38,17.60
2007,07,29,09,39,17.60
2007,07,29,09,40,17.60
2007,07,29,09,41,17.50
2007,07,29,09,42,17.60
2007,07,29,09,43,17.60
2007,07,29,09,44,17.60
2007,07,29,09,45,17.60
2007,07,29,09,46,17.80
2007,07,29,09,47,17.90
2007,07,29,09,48,18.10
2007,07,29,09,49,18.20
2007,07,29,09,50,18.30
2007,07,29,09,51,18.30
2007,07,29,09,52,18.40
2007,07,29,09,53,18.50
2007,07,29,09,54,18.60
2007,07,29,09,55,18.70
2007,07,29,09,56,18.80
2007,07,29,09,57,18.80
2007,07,29,09,58,18.80
2007,07,29,09,59,18.80
2007,07,29,10,00,18.80
2007,07,29,10,01,18.90
2007,07,29,10,02,18.90
2007,07,29,10,03,18.90
2007,07,29,10,04,18.90
2007,07,29,10,05,18.80
2007,07,29,10,06,18.80
2007,07,29,10,07,18.80
2007,07,29,10,08,18.80
2007,07,29,10,09,18.90
2007,07,29,10,10,18.90
2007,07,29,10,11,18.90
2007,07,29,10,12,18.90
2007,07,29,10,13,18.90
2007,07,29,10,14,18.90
2007,07,29,10,15,18.80
2007,07,29,10,16,18.80
2007,07,29,10,17,18.80
2007,07,29,10,18,18.80
2007,07,29,10,19,18.80
2007,07,29,10,20,18.80
2007,07,29,10,21,18.80
2007,07,29,10,22,18.90
2007,07,29,10,23,18.90
2007,07,29,10,24,18.80
2007,07,29,10,25,18.80
2007,07,29,10,26,18.90
2007,07,29,10,27,18.90
2007,07,29,10,28,18.90
2007,07,29,10,29,18.90
2007,07,29,10,30,18.90
2007,07,29,10,31,18.90
2007,07,29,10,32,19.00
2007,07,29,10,33,19.00
2007,07,29,10,34,19.00
2007,07,29,10,35,18.90
2007,07,29,10,36,18.80
2007,07,29,10,37,18.80
2007,07,29,10,38,18.90
2007,07,29,10,39,18.90
2007,07,29,10,40,18.90
2007,07,29,10,41,18.90
2007,07,29,10,42,19.00
2007,07,29,10,43,19.00
2007,07,29,10,44,19.10
2007,07,29,10,45,19.10
2007,07,29,10,46,19.10
2007,07,29,10,47,19.10
2007,07,29,10,48,19.10
2007,07,29,10,49,19.10
2007,07,29,10,50,19.20
2007,07,29,10,51,19.30
2007,07,29,10,52,19.40
2007,07,29,10,53,19.40
2007,07,29,10,54,19.30
2007,07,29,10,55,19.30
2007,07,29,10,56,19.30
2007,07,29,10,57,19.30
2007,07,29,10,58,19.30
2007,07,29,10,59,19.30
2007,07,29,11,00,19.30
2007,07,29,11,01,19.20
2007,07,29,11,02,19.30
2007,07,29,11,03,19.30
2007,07,29,11,04,19.40
2007,07,29,11,05,19.50
2007,07,29,11,06,19.60
2007,07,29,11,07,19.70
2007,07,29,11,08,19.70
2007,07,29,11,09,19.70
2007,07,29,11,10,19.80
2007,07,29,11,11,19.80
2007,07,29,11,12,19.80
2007,07,29,11,13,19.90
2007,07,29,11,14,19.90
2007,07,29,11,15,19.90
2007,07,29,11,16,19.80
2007,07,29,11,17,19.80
2007,07,29,11,18,19.80
2007,07,29,11,19,19.80
2007,07,29,11,20,19.80
2007,07,29,11,21,19.80
2007,07,29,11,22,19.80
2007,07,29,11,23,19.90
2007,07,29,11,24,19.90
2007,07,29,11,25,19.90
2007,07,29,11,26,19.80
2007,07,29,11,27,19.80
2007,07,29,11,28,19.70
2007,07,29,11,29,19.70
2007,07,29,11,30,19.70
2007,07,29,11,31,19.80
2007,07,29,11,32,19.80
2007,07,29,11,33,19.80
2007,07,29,11,34,19.80
2007,07,29,11,35,19.90
2007,07,29,11,36,19.90
2007,07,29,11,37,20.00
2007,07,29,11,38,20.00
2007,07,29,11,39,20.00
2007,07,29,11,40,20.00
2007,07,29,11,41,20.00
2007,07,29,11,42,20.00
2007,07,29,11,43,19.90
2007,07,29,11,44,19.90
2007,07,29,11,45,19.90
2007,07,29,11,46,19.90
2007,07,29,11,47,19.90
2007,07,29,11,48,19.90
2007,07,29,11,49,19.90
2007,07,29,11,50,19.80
2007,07,29,11,51,19.80
2007,07,29,11,52,19.90
2007,07,29,11,53,19.90
2007,07,29,11,54,19.90
2007,07,29,11,55,19.80
2007,07,29,11,56,19.80
2007,07,29,11,57,19.90
2007,07,29,11,58,19.90
2007,07,29,11,59,19.90
2007,07,29,12,00,19.90
2007,07,29,12,01,20.00
2007,07,29,12,02,20.00
2007,07,29,12,03,20.10
2007,07,29,12,04,20.10
2007,07,29,12,05,20.20
2007,07,29,12,06,20.20
2007,07,29,12,07,20.20
2007,07,29,12,08,20.20
2007,07,29,12,09,20.20
2007,07,29,12,10,20.30
2007,07,29,12,11,20.40
2007,07,29,12,12,20.40
2007,07,29,12,13,20.50
2007,07,29,12,14,20.50
2007,07,29,12,15,20.50
2007,07,29,12,16,20.50
2007,07,29,12,17,20.60
2007,07,29,12,18,20.50
2007,07,29,12,19,20.50
2007,07,29,12,20,20.40
2007,07,29,12,21,20.40
2007,07,29,12,22,20.40
2007,07,29,12,23,20.50
2007,07,29,12,24,20.50
2007,07,29,12,25,20.60
2007,07,29,12,26,20.60
2007,07,29,12,27,20.60
2007,07,29,12,28,20.60
2007,07,29,12,29,20.60
2007,07,29,12,30,20.60
2007,07,29,12,31,20.60
2007,07,29,12,32,20.60
2007,07,29,12,33,20.70
2007,07,29,12,34,20.70
2007,07,29,12,35,20.80
2007,07,29,12,36,20.80
2007,07,29,12,37,20.80
2007,07,29,12,38,20.80
2007,07,29,12,39,20.80
2007,07,29,12,40,20.80
2007,07,29,12,41,20.80
2007,07,29,12,42,20.90
2007,07,29,12,43,20.90
2007,07,29,12,44,20.90
2007,07,29,12,45,20.90
2007,07,29,12,46,20.90
2007,07,29,12,47,20.90
2007,07,29,12,48,20.90
2007,07,29,12,49,20.90
2007,07,29,12,50,20.90
2007,07,29,12,51,20.80
2007,07,29,12,52,20.90
2007,07,29,12,53,20.80
2007,07,29,12,54,20.90
2007,07,29,12,55,20.90
2007,07,29,12,56,20.90
2007,07,29,12,57,20.90
2007,07,29,12,58,20.90
2007,07,29,12,59,20.90
2007,07,29,13,00,21.00
2007,07,29,13,01,21.00
2007,07,29,13,02,21.00
2007,07,29,13,03,21.00
2007,07,29,13,04,20.90
2007,07,29,13,05,20.90
2007,07,29,13,06,20.90
2007,07,29,13,07,20.90
2007,07,29,13,08,20.90
2007,07,29,13,09,20.90
2007,07,29,13,10,21.00
2007,07,29,13,11,21.00
2007,07,29,13,12,21.00
2007,07,29,13,13,21.00
2007,07,29,13,14,21.10
2007,07,29,13,15,21.10
2007,07,29,13,16,21.10
2007,07,29,13,17,21.20
2007,07,29,13,18,21.20
2007,07,29,13,19,21.20
2007,07,29,13,20,21.30
2007,07,29,13,21,21.20
2007,07,29,13,22,21.10
2007,07,29,13,23,21.10
2007,07,29,13,24,21.10
2007,07,29,13,25,21.20
2007,07,29,13,26,21.20
2007,07,29,13,27,21.30
2007,07,29,13,28,21.20
2007,07,29,13,29,21.20
2007,07,29,13,30,21.20
2007,07,29,13,31,21.20
2007,07,29,13,32,21.20
2007,07,29,13,33,21.30
2007,07,29,13,34,21.40
2007,07,29,13,35,21.50
2007,07,29,13,36,21.60
2007,07,29,13,37,21.70
2007,07,29,13,38,21.70
2007,07,29,13,39,21.80
2007,07,29,13,40,21.90
2007,07,29,13,41,21.90
2007,07,29,13,42,21.90
2007,07,29,13,43,21.90
2007,07,29,13,44,21.80
2007,07,29,13,45,21.80
2007,07,29,13,46,21.80
2007,07,29,13,47,21.70
2007,07,29,13,48,21.60
2007,07,29,13,49,21.60
2007,07,29,13,50,21.60
2007,07,29,13,51,21.70
2007,07,29,13,52,21.70
2007,07,29,13,53,21.70
2007,07,29,13,54,21.70
2007,07,29,13,55,21.60
2007,07,29,13,56,21.60
2007,07,29,13,57,21.60
2007,07,29,13,58,21.70
2007,07,29,13,59,21.70
2007,07,29,14,00,21.70
2007,07,29,14,01,21.70
2007,07,29,14,02,21.80
2007,07,29,14,03,21.80
2007,07,29,14,04,21.80
2007,07,29,14,05,21.70
2007,07,29,14,06,21.60
2007,07,29,14,07,21.50
2007,07,29,14,08,21.50
2007,07,29,14,09,21.50
2007,07,29,14,10,21.50
2007,07,29,14,11,21.60
2007,07,29,14,12,21.50
2007,07,29,14,13,21.40
2007,07,29,14,14,21.40
2007,07,29,14,15,21.40
2007,07,29,14,16,21.40
2007,07,29,14,17,21.40
2007,07,29,14,18,21.40
2007,07,29,14,19,21.50
2007,07,29,14,20,21.60
2007,07,29,14,21,21.70
2007,07,29,14,22,21.70
2007,07,29,14,23,21.60
2007,07,29,14,24,21.60
2007,07,29,14,25,21.60
2007,07,29,14,26,21.60
2007,07,29,14,27,21.50
2007,07,29,14,28,21.50
2007,07,29,14,29,21.50
2007,07,29,14,30,21.60
2007,07,29,14,31,21.60
2007,07,29,14,32,21.70
2007,07,29,14,33,21.70
2007,07,29,14,34,21.70
2007,07,29,14,35,21.80
2007,07,29,14,36,21.80
2007,07,29,14,37,21.80
2007,07,29,14,38,21.80
2007,07,29,14,39,21.80
2007,07,29,14,40,21.70
2007,07,29,14,41,21.70
2007,07,29,14,42,21.70
2007,07,29,14,43,21.70
2007,07,29,14,44,21.70
2007,07,29,14,45,21.60
2007,07,29,14,46,21.60
2007,07,29,14,47,21.50
2007,07,29,14,48,21.40
2007,07,29,14,49,21.30
2007,07,29,14,50,21.30
2007,07,29,14,51,21.30
2007,07,29,14,52,21.30
2007,07,29,14,53,21.30
2007,07,29,14,54,21.40
2007,07,29,14,55,21.40
2007,07,29,14,56,21.50
2007,07,29,14,57,21.50
2007,07,29,14,58,21.60
2007,07,29,14,59,21.60
2007,07,29,15,00,21.60
2007,07,29,15,01,21.60
2007,07,29,15,02,21.70
2007,07,29,15,03,21.70
2007,07,29,15,04,21.60
2007,07,29,15,05,21.60
2007,07,29,15,06,21.60
2007,07,29,15,07,21.50
2007,07,29,15,08,21.50
2007,07,29,15,09,21.40
2007,07,29,15,10,21.30
2007,07,29,15,11,21.30
2007,07,29,15,12,21.40
2007,07,29,15,13,21.40
2007,07,29,15,14,21.50
2007,07,29,15,15,21.50
2007,07,29,15,16,21.60
2007,07,29,15,17,21.60
2007,07,29,15,18,21.50
2007,07,29,15,19,21.60
2007,07,29,15,20,21.60
2007,07,29,15,21,21.60
2007,07,29,15,22,21.50
2007,07,29,15,23,21.50
2007,07,29,15,24,21.50
2007,07,29,15,25,21.50
2007,07,29,15,26,21.50
2007,07,29,15,27,21.50
2007,07,29,15,28,21.50
2007,07,29,15,29,21.60
2007,07,29,15,30,21.70
2007,07,29,15,31,21.70
2007,07,29,15,32,21.50
2007,07,29,15,33,21.40
2007,07,29,15,34,21.30
2007,07,29,15,35,21.00
2007,07,29,15,36,20.90
2007,07,29,15,37,20.90
2007,07,29,15,38,21.00
2007,07,29,15,39,21.10
2007,07,29,15,40,21.20
2007,07,29,15,41,21.30
2007,07,29,15,42,21.40
2007,07,29,15,43,21.50
2007,07,29,15,44,21.50
2007,07,29,15,45,21.30
2007,07,29,15,46,21.20
2007,07,29,15,47,21.10
2007,07,29,15,48,21.10
2007,07,29,15,49,20.90
2007,07,29,15,50,20.80
2007,07,29,15,51,20.70
2007,07,29,15,52,20.70
2007,07,29,15,53,20.60
2007,07,29,15,54,20.70
2007,07,29,15,55,20.70
2007,07,29,15,56,20.70
2007,07,29,15,57,20.80
2007,07,29,15,58,20.80
2007,07,29,15,59,20.80
2007,07,29,16,00,20.80
2007,07,29,16,01,20.80
2007,07,29,16,02,20.80
2007,07,29,16,03,20.80
2007,07,29,16,04,20.80
2007,07,29,16,05,20.80
2007,07,29,16,06,20.80
2007,07,29,16,07,20.80
2007,07,29,16,08,20.80
2007,07,29,16,09,20.80
2007,07,29,16,10,20.90
2007,07,29,16,11,21.00
2007,07,29,16,12,21.10
2007,07,29,16,13,21.20
2007,07,29,16,14,21.10
2007,07,29,16,15,21.10
2007,07,29,16,16,21.10
2007,07,29,16,17,21.00
2007,07,29,16,18,20.90
2007,07,29,16,19,20.90
2007,07,29,16,20,21.00
2007,07,29,16,21,21.00
2007,07,29,16,22,20.90
2007,07,29,16,23,20.90
2007,07,29,16,24,20.90
2007,07,29,16,25,20.80
2007,07,29,16,26,20.80
2007,07,29,16,27,20.80
2007,07,29,16,28,20.90
2007,07,29,16,29,21.00
2007,07,29,16,30,21.00
2007,07,29,16,31,21.10
2007,07,29,16,32,21.20
2007,07,29,16,33,21.30
2007,07,29,16,34,21.40
2007,07,29,16,35,21.40
2007,07,29,16,36,21.50
2007,07,29,16,37,21.50
2007,07,29,16,38,21.50
2007,07,29,16,39,21.60
2007,07,29,16,40,21.60
2007,07,29,16,41,21.50
2007,07,29,16,42,21.40
2007,07,29,16,43,21.30
2007,07,29,16,44,21.30
2007,07,29,16,45,21.30
2007,07,29,16,46,21.30
2007,07,29,16,47,21.20
2007,07,29,16,48,21.10
2007,07,29,16,49,21.10
2007,07,29,16,50,21.00
2007,07,29,16,51,21.00
2007,07,29,16,52,20.90
2007,07,29,16,53,20.90
2007,07,29,16,54,20.90
2007,07,29,16,55,20.90
2007,07,29,16,56,21.00
2007,07,29,16,57,21.10
2007,07,29,16,58,21.10
2007,07,29,16,59,21.20
2007,07,29,17,00,21.20
2007,07,29,17,01,21.10
2007,07,29,17,02,21.00
2007,07,29,17,03,20.80
2007,07,29,17,04,20.80
2007,07,29,17,05,20.80
2007,07,29,17,06,20.80
2007,07,29,17,07,20.80
2007,07,29,17,08,20.80
2007,07,29,17,09,20.80
2007,07,29,17,10,20.80
2007,07,29,17,11,20.80
2007,07,29,17,12,20.70
2007,07,29,17,13,20.70
2007,07,29,17,14,20.60
2007,07,29,17,15,20.60
2007,07,29,17,16,20.50
2007,07,29,17,17,20.40
2007,07,29,17,18,20.40
2007,07,29,17,19,20.30